Temperature
26 27 28 28 29 30 30 30 30 30 30 30 30 30 30 29 29 28 28 26 25 24 22 21 20 20 19 19 20 20 20 19 19 19 18 18 18 18 18 18 18 18 18 17
26 27 28 29 28 28 28 29 29 29 29 29 30 30 30 30 29 28 27 26 25 24 22 21 20 20 19 19 20 20 20 19 19 19 19 18 18 18 18 18 18 18 18 17
27 28 28 27 27 27 28 29 29 29 29 29 30 30 30 29 28 27 27 26 25 24 23 21 20 20 19 19 19 19 19 19 19 18 18 18 18 18 18 18 18 18 18 17
27 28 27 27 27 28 28 29 29 28 29 29 29 29 30 30 29 28 27 26 26 24 23 22 21 20 20 19 19 19 19 19 19 18 18 18 18 18 18 18 18 18 18 17
27 27 27 27 28 28 29 29 28 28 29 29 29 29 30 30 29 29 28 27 26 24 23 22 21 20 20 19 19 19 19 19 18 18 18 18 18 18 18 18 18 17 17 17
28 28 28 28 29 28 28 28 28 28 29 28 29 29 29 30 29 29 28 26 25 24 23 22 21 20 19 19 19 18 18 19 18 18 18 18 18 18 18 18 17 17 17 17
26 27 28 28 28 28 28 28 27 27 27 28 29 28 29 29 29 29 28 26 25 24 23 22 21 20 19 19 18 18 18 18 18 18 18 18 18 18 18 17 17 17 17 17
26 26 27 28 28 28 28 28 28 27 27 28 27 28 29 29 28 27 26 26 25 24 23 22 21 20 19 19 18 18 18 18 18 18 18 18 17 17 17 17 17 17 17 17
27 27 28 28 29 29 28 28 30 29 28 28 28 28 29 28 28 27 26 26 25 24 23 22 21 20 19 19 18 18 18 18 18 18 17 17 17 17 17 17 17 17 17 17
28 27 28 28 28 28 29 29 29 28 27 27 28 28 28 28 28 27 27 26 25 24 23 22 21 20 19 19 18 18 18 18 18 17 17 17 17 17 17 17 17 17 17 17
28 27 27 28 27 28 27 28 28 28 28 27 27 28 29 28 28 27 27 25 24 23 23 22 21 20 19 19 18 18 18 18 17 17 17 17 17 17 17 17 17 17 17 16
28 28 27 27 28 29 29 28 28 27 27 27 28 28 28 28 28 27 26 24 23 23 22 21 21 20 19 19 18 18 18 17 17 17 17 17 17 17 17 17 17 17 17 16
27 26 26 26 27 27 28 28 29 29 28 28 28 28 26 27 27 26 25 24 23 22 22 21 20 20 19 19 18 18 18 17 17 17 17 17 17 17 17 17 17 16 16 16
27 27 27 27 27 28 27 27 28 28 28 28 28 28 27 26 26 25 24 23 23 22 21 21 20 19 19 18 18 18 18 17 17 17 17 17 17 17 17 17 17 16 16 16
26 26 27 28 28 28 28 28 28 28 28 28 28 28 27 26 25 24 23 23 22 21 21 20 20 19 18 18 18 18 18 17 17 17 17 17 17 17 17 16 16 16 16 16
25 26 26 26 27 27 27 28 28 28 28 28 28 27 26 24 23 22 22 22 21 20 20 19 19 18 18 18 18 18 17 17 17 17 17 17 16 16 16 16 16 16 16 16
25 25 25 26 27 26 26 27 27 27 28 28 27 26 24 23 22 21 21 20 20 19 19 18 18 18 18 18 17 17 17 17 17 17 16 16 16 16 16 16 16 16 16 16
24 24 25 26 25 24 26 26 27 27 26 26 26 25 24 23 21 20 20 19 19 18 18 17 17 17 17 17 17 17 17 17 17 16 16 16 16 16 16 15 15 15 15 15
24 24 25 25 25 25 25 25 26 26 25 25 25 24 22 21 20 19 18 18 17 17 17 17 17 17 17 17 17 17 17 17 16 16 16 16 15 15 15 15 15 15 15 15
23 23 25 25 25 24 25 25 24 25 24 24 23 22 21 21 23 20 17 17 16 16 16 16 16 16 16 16 16 16 16 16 16 15 15 15 15 15 15 15 15 15 15 14
23 23 24 24 24 25 23 23 23 24 23 22 22 21 21 21 21 17 16 16 15 15 15 16 16 16 16 16 16 16 16 15 15 15 15 15 15 15 15 15 14 14 14 14
23 23 23 24 24 23 21 23 23 21 20 20 20 20 19 17 16 16 15 15 15 15 15 15 15 15 15 15 15 15 15 15 15 15 15 15 14 14 14 14 14 14 14 13
22 22 23 23 22 19 19 19 18 18 18 18 18 18 17 16 16 15 14 14 14 14 14 14 14 14 14 14 14 15 14 14 14 14 14 14 14 14 13 13 13 13 13 13
20 19 20 20 19 18 17 17 17 17 17 17 17 16 16 16 15 14 14 14 13 13 14 14 14 14 13 14 14 14 14 14 14 14 14 13 13 13 13 13 13 13 12 12
20 20 20 19 18 18 17 16 16 16 16 16 16 15 15 15 14 13 13 13 13 13 13 13 13 13 13 13 13 13 13 13 13 13 13 12 12 12 12 12 12 12 12 11
19 19 20 20 18 18 16 15 15 15 15 15 14 14 14 14 13 13 12 12 12 12 12 12 12 12 12 12 12 13 13 13 13 12 12 12 12 12 12 11 11 11 11 10
Wind_Speed
12 13 15 14 14 9 6 8 8 6 2 6 7 7 5 4 6 8 8 9 10 10 11 12 13 13 14 14 14 14 15 14 12 11 11 11 10 10 9 10 11 12 11 11
11 17 15 10 11 11 10 10 9 6 3 5 7 7 5 4 6 6 7 8 9 9 10 11 12 13 14 14 14 15 15 14 14 12 10 9 9 9 10 9 10 12 12 12
17 7 11 12 13 13 13 12 9 6 4 7 8 10 8 5 5 5 6 7 8 9 10 12 13 13 14 14 14 13 14 13 14 12 9 8 7 7 8 9 9 11 13 13
15 8 11 15 15 14 12 9 8 7 8 7 7 9 8 7 6 6 6 6 7 8 9 11 12 13 13 13 13 13 13 13 13 13 12 12 11 10 10 9 9 10 12 13
12 13 13 15 15 14 9 6 8 8 9 9 8 9 5 6 6 6 6 6 6 7 8 9 10 11 11 12 12 12 12 13 13 13 14 13 12 10 8 8 9 10 10 12
11 10 13 13 12 12 7 7 6 8 10 12 10 9 6 5 4 3 3 4 5 6 6 7 8 8 9 10 10 11 11 12 12 13 13 13 13 11 10 10 10 9 9 10
13 13 12 11 13 14 13 11 8 9 9 9 6 8 4 1 1 2 2 3 4 5 6 7 7 8 8 9 9 10 11 11 11 12 12 13 13 13 12 12 11 10 9 10
14 15 15 13 14 13 17 16 10 7 8 7 7 7 3 2 1 1 2 3 4 5 5 6 7 7 8 8 8 8 10 9 10 11 11 11 11 10 10 11 10 11 9 10
12 10 13 13 13 12 16 16 13 8 6 7 6 5 4 4 3 3 3 4 5 5 6 6 7 7 7 8 8 8 8 8 9 10 9 10 11 10 10 9 10 9 9 9
8 9 11 12 11 12 11 13 10 10 7 8 7 8 6 6 4 4 3 4 5 6 6 6 7 7 6 7 7 7 8 8 8 8 8 8 9 10 9 9 9 9 9 9
10 9 10 13 13 15 12 13 11 11 9 7 6 4 2 4 3 3 3 4 5 6 6 6 6 7 7 6 7 7 7 7 7 8 8 7 8 8 9 8 9 9 9 9
13 9 10 12 8 9 14 14 14 11 9 9 8 2 5 3 3 3 4 5 5 6 6 6 6 7 6 7 6 7 7 7 7 7 7 7 7 7 7 8 8 8 8 9
13 9 11 11 10 9 13 13 14 13 10 10 10 4 7 5 4 4 5 5 6 5 6 6 6 6 6 6 6 6 6 6 6 7 7 6 6 7 7 7 7 7 8 8
10 10 12 12 11 14 14 14 14 14 11 10 10 5 6 5 5 4 5 5 6 5 5 5 5 5 5 5 5 5 5 5 6 6 6 6 6 6 6 6 6 6 7 8
9 12 12 8 6 11 13 14 15 15 12 10 8 6 4 4 4 4 4 5 5 5 4 4 4 4 4 5 5 5 5 5 5 5 6 5 5 5 5 5 5 6 6 7
7 9 11 10 9 10 11 12 13 13 12 11 8 5 4 5 5 5 5 5 5 4 3 3 3 3 3 4 5 5 5 5 5 5 5 5 4 4 4 4 5 5 5 5
9 8 11 11 11 11 13 11 11 10 9 9 9 5 7 7 6 5 5 5 4 3 3 3 3 2 2 3 4 5 5 6 6 5 5 5 5 4 4 5 5 5 5 5
8 10 8 9 11 14 6 4 6 7 5 5 4 6 7 7 7 6 5 5 4 3 3 2 2 2 2 3 4 5 6 6 6 5 5 6 6 5 5 5 5 5 5 5
7 8 8 9 13 10 6 5 6 7 5 3 5 8 9 10 9 7 6 5 4 4 3 2 2 2 2 3 4 5 6 6 6 5 5 5 6 6 6 6 6 6 6 6
7 8 9 10 12 11 6 6 4 5 6 4 6 8 9 9 6 5 5 5 5 5 4 3 3 4 4 3 3 5 6 6 6 6 5 5 5 6 6 7 7 6 6 6
11 9 12 12 10 5 5 4 6 8 4 5 6 7 7 4 4 7 6 6 6 5 5 5 4 5 4 3 4 5 5 5 6 6 6 6 6 6 7 7 7 7 7 7
8 9 9 10 11 6 4 4 3 4 6 5 6 6 7 9 10 9 8 7 6 6 6 6 5 6 5 5 5 6 6 5 6 7 7 7 7 7 7 8 7 7 7 8
3 1 2 2 1 6 5 5 5 4 5 5 6 8 10 10 10 9 8 7 7 7 6 6 7 7 7 6 6 8 6 7 8 9 9 9 9 9 8 8 8 7 6 6
3 1 1 2 4 5 5 5 4 5 5 6 8 9 10 10 10 9 8 7 7 7 7 6 7 8 8 7 8 7 7 8 10 11 10 10 10 11 10 8 7 6 6 6
2 3 3 3 5 5 5 5 6 7 8 9 10 10 10 10 10 9 8 8 7 8 7 7 8 8 9 8 8 8 8 9 11 11 11 11 11 12 12 12 11 10 10 8
2 2 3 2 4 3 5 5 6 8 8 9 10 11 10 10 11 10 9 8 8 8 8 9 9 10 10 10 9 9 8 9 10 10 10 9 9 10 11 12 14 20 17 19
Wind_Direction
189 208 214 212 219 247 246 235 223 210 202 243 239 247 244 217 214 217 210 203 202 201 192 187 189 190 188 189 190 193 194 192 190 193 196 199 201 201 203 205 200 198 203 205
193 220 221 217 215 227 231 230 224 203 207 251 243 244 239 222 217 220 213 207 206 194 183 182 187 191 192 191 192 194 194 194 197 197 197 199 198 202 204 206 201 201 202 206
208 207 199 202 205 215 225 231 229 227 227 231 247 235 215 200 208 213 214 211 208 199 193 187 188 192 194 194 196 197 197 197 201 198 193 193 194 202 205 207 208 208 208 210
220 201 194 204 210 215 222 224 235 236 242 226 235 249 204 205 210 210 207 205 204 199 196 192 192 193 196 197 195 198 196 197 198 195 195 196 199 203 209 208 207 208 212 215
208 201 199 209 211 212 224 207 222 231 240 251 227 254 220 192 225 213 205 205 203 196 195 193 193 194 197 195 194 195 195 198 197 197 197 199 206 211 211 211 210 212 212 216
215 202 211 216 210 207 198 187 200 225 235 238 230 245 242 205 224 217 188 193 194 190 186 184 186 186 189 191 191 191 193 197 198 199 203 206 210 210 209 209 211 212 212 215
207 206 208 213 203 195 201 201 204 210 219 231 198 233 245 130 214 257 219 185 177 176 175 175 175 177 180 184 185 190 194 195 196 200 206 213 216 213 213 215 214 214 214 213
196 199 198 201 205 193 204 212 221 223 223 207 184 228 199 135 142 189 188 167 165 168 164 167 168 172 176 178 180 186 189 192 196 203 207 211 215 214 216 216 214 215 217 216
199 196 183 196 204 208 201 216 231 247 248 238 205 201 192 171 172 165 163 157 153 156 159 161 160 165 169 173 177 183 186 191 196 202 205 207 209 214 216 213 212 215 215 213
203 196 181 185 192 210 218 209 216 231 228 231 216 217 213 184 177 157 153 156 148 153 156 154 155 154 154 162 169 179 187 195 199 202 207 206 208 210 211 212 209 209 213 214
212 200 176 183 198 192 195 202 212 224 238 244 229 201 145 169 163 159 147 145 146 152 152 151 152 150 152 159 164 172 179 190 198 201 205 205 203 203 202 205 206 206 208 206
207 213 191 188 189 209 205 206 207 216 219 240 261 169 104 134 141 133 126 126 132 142 148 151 149 148 155 163 169 174 182 191 197 196 198 200 197 192 196 200 201 202 202 200
190 206 196 184 188 198 207 210 214 222 225 229 240 182 119 135 128 121 124 129 132 137 143 150 153 157 161 167 172 173 179 184 189 184 186 186 187 187 193 197 197 198 195 192
197 209 220 211 201 188 198 204 213 220 228 227 235 203 149 152 141 129 131 137 137 135 140 154 160 166 169 175 175 175 177 176 177 174 175 175 181 184 188 189 189 190 188 184
204 211 220 229 200 191 198 203 207 221 233 239 228 218 183 160 151 138 134 136 129 124 125 139 153 158 170 177 177 174 172 169 168 167 168 171 173 172 173 176 179 178 178 177
203 211 204 211 204 202 205 206 208 216 228 235 234 206 130 130 134 134 127 128 120 114 114 117 122 141 169 180 181 176 170 164 162 162 159 158 157 158 159 162 164 159 158 159
189 200 206 206 196 203 211 208 207 209 219 230 230 192 148 146 140 135 130 120 107 105 109 115 123 134 154 181 178 174 169 159 157 158 151 145 146 144 141 135 133 137 140 140
196 202 208 205 194 216 194 180 207 205 204 215 190 149 150 141 128 116 112 108 92 79 85 86 97 112 132 153 160 161 159 154 152 151 148 143 138 135 130 123 123 124 125 125
201 203 210 209 210 208 167 177 194 200 194 192 172 149 136 131 130 112 94 87 79 67 68 68 56 87 110 128 144 152 154 150 144 142 142 143 144 140 135 129 124 123 121 118
182 208 216 216 221 217 175 154 185 212 200 161 162 156 151 165 182 128 99 84 75 65 63 68 73 79 82 93 129 138 139 136 135 135 137 137 139 137 133 127 124 121 120 115
184 196 213 217 221 209 106 149 187 212 162 127 152 157 163 158 81 110 106 87 76 69 66 69 72 73 73 82 112 121 122 123 127 128 123 123 126 125 123 121 119 117 114 107
201 198 206 216 222 197 97 171 185 83 89 117 133 136 124 108 107 109 100 87 76 67 69 75 77 71 67 77 103 105 103 105 112 114 112 110 112 116 114 113 110 112 114 112
219 289 230 230 123 80 81 82 74 96 108 107 118 120 124 122 116 106 94 82 74 68 70 79 84 81 73 71 84 89 87 100 106 105 102 98 92 89 96 105 110 109 109 109
150 126 163 139 114 106 99 93 91 98 106 112 119 123 125 121 113 104 95 86 79 72 72 76 83 82 76 72 77 85 94 98 101 99 96 94 89 84 75 71 71 77 82 94
145 174 178 166 134 127 114 103 102 102 109 113 114 117 120 117 110 106 100 92 83 75 72 75 78 82 80 77 77 81 92 100 100 98 96 94 90 87 79 69 54 58 50 51
181 201 222 167 143 147 126 118 121 116 113 116 115 112 109 110 110 106 99 93 89 85 82 81 81 81 80 79 77 77 84 95 101 101 100 98 98 96 97 94 79 58 61 58
Height
1486 1486 1483 1480 1480 1478 1479 1480 1481 1480 1479 1481 1480 1478 1477 1480 1482 1484 1486 1490 1493 1496 1499 1501 1504 1506 1508 1511 1513 1515 1518 1521 1524 1528 1531 1534 1537 1540 1543 1545 1548 1550 1553 1556
1485 1482 1476 1477 1480 1482 1482 1484 1482 1480 1480 1480 1478 1477 1475 1478 1480 1482 1485 1488 1491 1494 1496 1498 1501 1503 1505 1507 1509 1511 1514 1517 1520 1523 1526 1530 1533 1537 1539 1542 1544 1547 1549 1552
1475 1472 1475 1479 1482 1484 1482 1482 1480 1481 1479 1478 1479 1478 1475 1476 1479 1482 1484 1486 1488 1490 1493 1495 1497 1500 1502 1504 1506 1508 1511 1514 1517 1520 1523 1526 1530 1533 1536 1538 1541 1543 1546 1549
1472 1471 1476 1478 1478 1480 1482 1477 1479 1482 1483 1478 1479 1483 1473 1471 1475 1478 1481 1483 1485 1488 1490 1492 1494 1497 1499 1501 1503 1505 1508 1510 1513 1516 1519 1521 1524 1527 1530 1533 1537 1540 1542 1546
1469 1469 1474 1476 1473 1476 1474 1475 1478 1479 1480 1480 1478 1482 1472 1469 1472 1472 1476 1480 1482 1485 1487 1490 1492 1494 1496 1498 1500 1502 1504 1507 1509 1512 1514 1517 1520 1524 1527 1530 1533 1535 1538 1542
1462 1466 1468 1468 1469 1473 1474 1477 1479 1478 1477 1490 1479 1482 1477 1467 1470 1470 1473 1478 1481 1483 1486 1488 1490 1492 1494 1496 1498 1499 1501 1503 1506 1508 1511 1513 1516 1519 1522 1525 1528 1531 1534 1538
1466 1465 1464 1465 1468 1471 1474 1479 1488 1491 1490 1485 1473 1479 1474 1466 1467 1470 1472 1476 1479 1482 1484 1486 1489 1490 1492 1494 1495 1497 1499 1500 1503 1505 1507 1510 1512 1514 1517 1521 1523 1527 1530 1533
1466 1467 1461 1461 1462 1466 1470 1471 1481 1490 1487 1477 1478 1478 1467 1466 1469 1472 1473 1475 1478 1480 1483 1485 1487 1489 1490 1492 1493 1495 1496 1498 1500 1502 1504 1506 1508 1511 1514 1517 1520 1523 1526 1529
1455 1458 1453 1456 1457 1459 1466 1466 1458 1467 1472 1477 1472 1469 1465 1465 1468 1470 1472 1475 1477 1480 1482 1484 1486 1488 1489 1491 1492 1493 1495 1496 1498 1500 1501 1503 1505 1508 1510 1513 1516 1519 1522 1525
1446 1455 1453 1454 1457 1458 1456 1458 1464 1470 1484 1486 1477 1473 1468 1465 1466 1468 1471 1473 1476 1479 1481 1483 1485 1487 1488 1490 1491 1492 1493 1495 1496 1498 1499 1501 1503 1505 1507 1510 1512 1515 1518 1521
1443 1452 1454 1454 1457 1457 1461 1461 1461 1463 1464 1477 1481 1473 1457 1461 1464 1466 1469 1473 1476 1478 1480 1483 1485 1486 1488 1489 1491 1492 1493 1494 1495 1497 1498 1500 1501 1503 1505 1506 1509 1511 1513 1516
1443 1446 1451 1451 1449 1448 1452 1454 1459 1469 1472 1469 1468 1469 1459 1461 1464 1467 1470 1474 1476 1479 1481 1483 1484 1486 1487 1489 1491 1492 1493 1494 1495 1496 1497 1498 1499 1501 1502 1504 1506 1508 1510 1512
1443 1449 1459 1459 1458 1454 1452 1451 1450 1453 1458 1464 1469 1468 1461 1463 1466 1469 1471 1474 1477 1479 1481 1483 1484 1486 1487 1489 1490 1491 1492 1493 1494 1495 1496 1497 1498 1499 1500 1502 1503 1505 1508 1510
1442 1444 1448 1453 1448 1446 1452 1452 1450 1452 1459 1461 1460 1459 1461 1463 1466 1470 1472 1475 1477 1479 1481 1482 1483 1485 1486 1488 1489 1490 1491 1493 1493 1494 1495 1496 1497 1498 1499 1500 1502 1503 1506 1508
1440 1443 1441 1437 1436 1439 1445 1448 1449 1451 1451 1455 1453 1455 1458 1462 1467 1471 1473 1475 1477 1479 1480 1482 1483 1484 1485 1487 1488 1489 1490 1491 1492 1493 1494 1495 1496 1497 1498 1499 1500 1502 1504 1506
1441 1441 1442 1444 1440 1441 1444 1444 1446 1448 1449 1449 1450 1455 1459 1465 1469 1472 1474 1475 1477 1479 1480 1481 1482 1483 1485 1486 1487 1488 1489 1490 1491 1492 1493 1494 1495 1496 1497 1498 1499 1500 1502 1504
1438 1442 1444 1444 1442 1445 1450 1444 1445 1446 1446 1448 1451 1455 1461 1466 1470 1473 1475 1476 1478 1479 1480 1481 1482 1483 1484 1485 1486 1488 1489 1490 1490 1492 1493 1493 1494 1495 1496 1497 1498 1499 1501 1503
1439 1441 1440 1441 1448 1461 1445 1442 1443 1445 1448 1449 1452 1457 1462 1466 1472 1474 1476 1478 1479 1480 1480 1481 1482 1482 1483 1485 1486 1487 1488 1489 1490 1491 1493 1494 1494 1495 1496 1497 1498 1499 1501 1503
1440 1441 1439 1441 1448 1446 1447 1445 1445 1448 1452 1453 1454 1459 1464 1469 1472 1475 1478 1479 1480 1480 1480 1481 1482 1482 1483 1484 1485 1486 1487 1488 1490 1491 1492 1494 1495 1496 1497 1498 1499 1500 1502 1503
1440 1440 1439 1442 1447 1452 1444 1444 1448 1450 1455 1455 1457 1461 1465 1467 1466 1474 1478 1479 1480 1480 1481 1481 1481 1482 1482 1483 1484 1485 1486 1488 1489 1491 1492 1493 1495 1496 1497 1498 1500 1501 1503 1504
1439 1441 1439 1440 1443 1440 1443 1447 1450 1456 1456 1458 1460 1462 1465 1467 1469 1476 1478 1480 1480 1481 1481 1481 1481 1481 1482 1483 1483 1484 1486 1488 1489 1490 1492 1493 1494 1496 1498 1499 1501 1502 1504 1505
1435 1436 1440 1439 1445 1447 1449 1448 1450 1456 1459 1460 1462 1465 1467 1471 1474 1476 1478 1480 1481 1481 1481 1481 1482 1482 1482 1483 1484 1484 1485 1487 1489 1490 1492 1493 1495 1497 1498 1500 1501 1503 1505 1506
1437 1439 1435 1440 1447 1452 1453 1455 1458 1459 1461 1463 1464 1467 1470 1472 1475 1477 1479 1481 1481 1482 1482 1483 1483 1483 1483 1484 1484 1485 1486 1488 1489 1491 1492 1494 1495 1497 1499 1501 1503 1505 1506 1508
1444 1446 1445 1447 1451 1454 1456 1458 1460 1461 1463 1465 1467 1469 1471 1474 1476 1478 1481 1482 1483 1483 1484 1484 1485 1484 1485 1485 1486 1486 1488 1489 1490 1492 1494 1495 1496 1498 1500 1502 1504 1506 1508 1509
1443 1445 1445 1449 1453 1456 1458 1460 1461 1463 1464 1466 1469 1471 1473 1475 1477 1480 1482 1483 1484 1485 1485 1486 1486 1486 1487 1487 1487 1488 1489 1491 1492 1494 1495 1497 1499 1500 1501 1503 1505 1507 1508 1510
1445 1446 1445 1446 1452 1454 1459 1461 1463 1465 1467 1469 1471 1473 1476 1477 1479 1482 1483 1485 1486 1487 1487 1488 1488 1488 1489 1490 1490 1491 1492 1493 1495 1496 1498 1499 1501 1503 1504 1505 1507 1510 1511 1513